FW6330 Weather Reports


Display with metric or nautical units.
time (UTC)temp
F
wind
direction
speed
MPH
gust
MPH
rain 1hr
in
rain 24hr
in
rain mn
in
humidity
%
barometer
mb
20260504043010 41 267 0.0 0.0 0.00 0.00 0.00 77 1011.0
20260504041504 41 132 0.0 0.0 0.00 0.00 0.00 76 1010.3
20260504034555 43 149 0.0 0.0 0.00 0.00 0.00 73 1009.7
20260504033054 43 198 0.0 2.0 0.00 0.00 0.00 67 1009.9
20260504031557 44 79 0.0 4.0 0.00 0.00 0.00 75 1009.8
20260504030046 43 98 1.0 3.0 0.00 0.00 0.00 81 1010.1
20260504024549 44 152 0.0 1.0 0.00 0.00 0.00 81 1010.0
20260504023034 44 288 0.0 0.0 0.00 0.00 0.00 80 1009.6
20260504021529 45 129 0.0 0.0 0.00 0.00 0.00 78 1009.1
20260504020025 45 83 0.0 1.0 0.00 0.00 0.00 77 1009.1
20260504014520 45 95 0.0 2.0 0.00 0.00 0.00 75 1009.2
20260504013018 45 58 0.0 0.0 0.00 0.00 0.00 74 1009.3
20260504011511 46 229 0.0 0.0 0.00 0.00 0.00 76 1009.2
20260504010006 45 241 0.0 0.0 0.00 0.00 0.00 75 1009.3
20260504004505 45 83 0.0 2.0 0.00 0.00 0.00 75 1009.5
20260504003102 45 349 0.0 0.0 0.00 0.00 0.00 75 1009.5
20260504001557 45 143 0.0 2.0 0.00 0.00 0.00 77 1009.4
20260504000050 44 353 0.0 1.0 0.00 0.00 0.00 78 1009.3
20260503234544 44 139 0.0 3.0 0.00 0.00 0.00 77 1009.6
20260503233040 43 326 1.0 4.0 0.00 0.00 0.00 79 1009.6
20260503231535 43 53 1.0 8.0 0.00 0.00 0.00 78 1009.5
20260503230038 44 191 0.0 11.0 0.00 0.00 0.00 75 1009.6
20260503224534 46 127 0.0 1.0 0.00 0.00 0.00 73 1009.3
20260503223032 47 42 0.0 1.0 0.00 0.00 0.00 72 1009.3
20260503221536 47 32 0.0 4.0 0.00 0.00 0.00 68 1009.4
20260503220034 48 205 0.0 5.0 0.00 0.00 0.00 68 1009.3
20260503214532 48 213 0.0 2.0 0.00 0.00 0.00 70 1009.3
20260503213031 47 192 0.0 1.0 0.00 0.00 0.00 71 1009.3
20260503211537 47 50 0.0 1.0 0.00 0.00 0.00 68 1009.2
20260503210031 48 103 0.0 0.0 0.00 0.00 0.00 67 1009.4
20260503204531 49 163 0.0 1.0 0.00 0.00 0.00 63 1009.1
20260503203028 49 134 0.0 3.0 0.00 0.00 0.00 62 1009.4
20260503201528 50 244 0.0 1.0 0.00 0.00 0.00 58 1009.1
20260503200027 50 174 0.0 1.0 0.00 0.00 0.00 59 1009.0
20260503194526 50 248 0.0 1.0 0.00 0.00 0.00 57 1009.1
20260503193036 50 190 0.0 1.0 0.00 0.00 0.00 55 1009.0
20260503191522 52 103 0.0 3.0 0.00 0.00 0.00 53 1009.0
20260503190025 54 305 0.0 4.0 0.00 0.00 0.00 51 1008.8
20260503184517 56 194 0.0 5.0 0.00 0.00 0.00 46 1008.9
20260503183008 57 15 0.0 2.0 0.00 0.00 0.00 45 1009.1
20260503181505 56 188 0.0 3.0 0.00 0.00 0.00 45 1009.3
20260503180101 56 153 0.0 3.0 0.00 0.00 0.00 45 1009.3
20260503174607 55 214 0.0 4.0 0.00 0.00 0.00 48 1009.2
20260503173050 57 42 0.0 3.0 0.00 0.00 0.00 48 1009.2
20260503171546 57 212 0.0 3.0 0.00 0.00 0.00 48 1009.2
20260503081518 44 51 0.0 2.0 0.00 0.00 0.00 71 1012.3
20260503071553 45 172 0.0 3.0 0.00 0.00 0.00 73 1013.0
20260503054545 45 70 0.0 1.0 0.00 0.00 0.00 78 1013.4
20260503053045 45 122 0.0 0.0 0.00 0.00 0.00 78 1013.3
20260503051546 45 38 0.0 1.0 0.00 0.00 0.00 79 1013.3
20260503050043 45 236 0.0 1.0 0.00 0.00 0.00 81 1013.2
20260503044548 46 34 0.0 0.0 0.00 0.00 0.00 80 1013.1